Main page
METAR-TAF:

METAR-TAF

Airports :

Tarvisio, Italy

latitude: 46-30N, longitude: 013-35E, elevation: 777 m

Current weather observation

The report was made 54 minutes ago, at 06:55 UTC
Wind 1 kt from the South/Southeast
Temperature 16°C
Humidity 88%
Pressure 1023 hPa
Visibility 10 km or more
Scattered clouds at a height of 1500 ft

METAR: LIVO 170655Z 16001KT 9999 SCT015 16/14 Q1023 RMK SCT VIS MIN 9999

Time: 09:49 (07:49 UTC)


TAF: missing

Weather observations and forecasts of more than 4000 airports (METAR and TAF reports).

The available stations are represented by yellow and red dots on the map.

Hover mouse over dot to see the name of the station.

Then click to see weather observations and forecasts.

To change the map : click on the green buttons with a black cross to zoom in, on the green button with a dash to zoom out, or on the green arrows for adjacent maps.


METAR-TAF: